Total_Precipitation_Accumulation
4.15 3.53 3.24 2.58 1.83 1.44 1.42 1.86 1.93 1.72 1.39 1.26 1.45 1.34 1.38 1.40 1.35 1.47 1.75 1.82 1.78 1.62
4.09 3.35 3.16 3.30 3.08 1.72 1.18 1.20 1.66 1.61 1.30 1.01 0.85 1.01 1.16 1.16 1.18 1.29 1.32 1.27 1.31 1.30
3.82 4.07 3.65 3.15 3.17 2.87 1.81 1.42 1.34 1.41 1.22 0.97 0.81 0.68 0.66 0.71 0.72 0.99 1.08 1.14 1.24 1.23
2.28 3.26 3.42 3.77 3.20 3.11 2.79 2.06 1.90 1.83 1.76 1.33 0.97 0.70 0.67 0.55 0.50 0.58 0.71 0.90 1.07 1.05
1.02 1.86 2.02 2.61 2.97 3.15 2.82 2.66 2.02 1.86 1.88 1.75 1.49 1.13 0.88 0.71 0.64 0.52 0.46 0.50 0.75 0.81
0.82 1.03 1.17 1.65 1.99 2.32 2.86 2.46 2.28 2.00 2.12 1.95 1.83 1.66 1.32 1.10 1.00 0.91 0.73 0.64 0.63 0.57
1.08 1.30 1.03 0.99 1.43 1.52 2.11 2.81 2.30 2.26 1.61 1.37 1.57 1.68 1.65 1.50 1.36 1.20 1.11 0.95 0.83 0.78
1.34 1.07 1.23 1.34 1.48 1.84 1.83 2.22 2.49 2.49 2.24 1.64 1.42 1.54 1.52 1.45 1.45 1.42 1.33 1.26 1.25 1.12
1.71 1.31 0.96 1.12 1.26 1.73 2.08 2.21 3.01 2.80 3.08 2.67 2.04 1.98 1.76 1.66 1.77 1.83 1.85 1.65 1.33 1.30
2.32 1.88 1.51 1.23 1.41 1.50 2.02 2.31 2.98 3.27 3.22 3.51 3.41 3.37 2.62 2.39 2.11 2.39 2.41 2.07 1.97 1.79
2.87 2.83 3.09 2.53 2.27 2.58 2.65 2.92 3.07 3.43 3.46 2.71 2.89 3.12 2.71 2.38 1.92 1.70 1.61 1.70 1.62 1.68
2.22 2.70 2.66 2.82 3.30 3.16 3.41 3.58 3.51 3.27 3.04 2.43 2.26 2.36 2.24 2.52 2.46 2.24 1.81 1.54 1.45 1.63
2.06 2.19 2.23 1.86 2.34 2.44 2.05 2.13 2.21 2.24 2.31 2.33 1.71 1.83 1.57 1.56 1.92 2.21 1.88 1.77 1.42 1.75
1.49 1.72 2.09 2.23 1.94 2.23 2.07 1.62 1.60 1.69 1.40 1.28 1.20 1.09 1.34 1.21 1.15 1.30 1.53 1.40 1.17 1.03